Regional Weather Roundup
Issued by NWS Spokane, WA

Home | Current Version | Previous Version | Text Only | Print | Product List | Glossary On
Versions: 1 2 3 4 5 6 7 8 9 10 11 12 13 14 15 16 17 18 19 20 21 22 23 24 25 26 27 28 29 30 31 32 33 34 35 36 37 38 39 40 41 42 43 44 45 46 47 48 49 50
000
NZUS01 KOTX 010510
RWROTX
EASTERN WASHINGTON/NORTHERN IDAHO ROUNDUP
NATIONAL WEATHER SERVICE, SPOKANE WA
1000 PM PDT TUE SEP 30 2014

Note: "fair" indicated few or no clouds below 12,000 feet with no
significant weather and/or obstructions to visibility.

...NORTHEAST WASHINGTON AND NORTHERN IDAHO PANHANDLE...

CITY           SKY/WX    TMP DP  RH WIND       PRES   REMARKS
SPOKANE INTL   CLEAR     46  35  65 W3        29.98S
SPOKANE DOWNTO CLEAR     46  41  82 N5        29.99R
COEUR D ALENE  CLEAR     46  41  81 S8        29.98S
DEER PARK      CLEAR     39  36  89 CALM      29.99R
SANDPOINT      CLEAR     39  39 100 CALM      29.97S FOG

...SOUTHEAST WASHINGTON AND SOUTHERN IDAHO PANHANDLE...

CITY           SKY/WX    TMP DP  RH WIND       PRES   REMARKS
WALLA WALLA    CLEAR     55  38  52 SW5       30.06R
PULLMAN/MOSCOW MOCLDY    48  43  82 CALM      30.02S
LEWISTON       PTCLDY    54  43  66 E8        30.01S
LOWELL           N/A     51  49  92 CALM      30.06R

...COLUMBIA BASIN...

CITY           SKY/WX    TMP DP  RH WIND       PRES   REMARKS
EPHRATA        CLEAR     57  36  45 NW14      30.01R
MOSES LAKE     CLEAR     56  37  49 NW15      30.03R
TRI CITIES     CLEAR     58  40  51 W9        30.04R
HERMISTON      CLEAR     57  44  62 SW14      30.06R
PENDLETON      CLEAR     55  41  59 W18       30.06R

...EAST SLOPES CASCADES...

CITY           SKY/WX    TMP DP  RH WIND       PRES   REMARKS
THE DALLES     CLEAR     57  44  62 W7        30.10S
YAKIMA         CLEAR     60  39  45 NW22G30   30.07R
ELLENSBURG     CLEAR     52  40  63 NW14      30.07R
WENATCHEE      CLEAR     58  35  42 NW14      30.05R
OMAK           CLEAR     48  38  68 NW9       30.03R

...SOUTHERN BRITISH COLUMBIA...

CITY           SKY/WX    TMP DP  RH WIND       PRES   REMARKS
PENTICTON      PTCLDY    50  45  81 CALM      30.04S
CRANBROOK      PTCLDY    45  39  81 S7        29.92R

...WESTERN MONTANA...

CITY           SKY/WX    TMP DP  RH WIND       PRES   REMARKS
MISSOULA       CLOUDY    47  40  76 SW3       30.00R

...NEIGHBORING CITIES...

CITY           SKY/WX    TMP DP  RH WIND       PRES   REMARKS
SEATTLE        MOCLDY    59  49  69 E7        30.16R
CALGARY        PTCLDY    41  34  75 VRB2      29.87R



USA.gov is the U.S. government's official web portal to all federal, state and local government web resources and services.